Regional Weather Roundup
Issued by NWS Albany, NY

Home | Current Version | Previous Version | Text Only | Print | Product List | Glossary On
Versions: 1 2 3 4 5 6 7 8 9 10 11 12 13 14 15 16 17 18 19 20 21 22 23 24 25 26 27 28 29 30 31 32 33 34 35 36 37 38 39 40 41 42 43 44 45 46 47 48 49 50
000
ASUS41 KALY 272010
RWRALY

NEW YORK STATE HOURLY WEATHER ROUNDUP
NATIONAL WEATHER SERVICE ALBANY NY
400 PM EDT FRI MAR 27 2015

NOTE: "FAIR" INDICATES FEW OR NO CLOUDS BELOW 12,000 FEET WITH NO
SIGNIFICANT WEATHER AND/OR NO OBSTRUCTIONS TO VISIBILITY.

NYZ032-033-038>043-046>054-057>066-NYZ062>081-272100-
EAST


CITY           SKY/WX    TMP DP  RH WIND       PRES   REMARKS
ALBANY         CLOUDY    45  28  51 NW15      29.72F
GLENS FALLS    CLOUDY    43  30  60 CALM      29.70F
POUGHKEEPSIE   CLOUDY    45  29  53 N7        29.72S
NEWBURGH       CLOUDY    43  30  61 VRB5      29.73S
MONTGOMERY     CLOUDY    43  28  55 NW12      29.71R
WHITE PLAINS   CLOUDY    44  32  62 N6        29.70F
ISLIP          CLOUDY    45  34  65 NW7       29.70R
NEW YORK CITY  CLOUDY    45  32  60 NW6       29.71F
CENTRAL PARK   CLOUDY    45  31  58 N9        29.73F
$$

NYZ005>009-017-018-044>046-055-056-272100-
CENTRAL


CITY           SKY/WX    TMP DP  RH WIND       PRES   REMARKS
FULTON         CLOUDY    33  24  69 W14       29.83R WCI  23
SYRACUSE       PTSUNNY   35  25  66 NW15G23   29.81R WCI  25
ROME           CLOUDY    35  27  72 W15       29.80R WCI  25
ELMIRA         CLOUDY    37  24  59 NW12      29.78R WCI  29
BINGHAMTON     CLOUDY    34  22  61 NW9       29.73R WCI  27
MONTICELLO     CLOUDY    37  28  70 N7        29.71F WCI  32
$$

NYZ026>034-041>043-272100-
NORTH


CITY           SKY/WX    TMP DP  RH WIND       PRES   REMARKS
WATERTOWN      CLOUDY    29  22  75 N12       29.83R WCI  19
FORT DRUM      NOT AVBL
MASSENA        CLOUDY    29  22  75 W9        29.84R WCI  20
SARANAC LAKE   CLOUDY    32  26  78 N8        29.67F WCI  25
PLATTSBURGH    CLOUDY    34  29  82 N10       29.77S WCI  26
$$

NYZ001>004-010>016-019>021-272100-
WEST


CITY           SKY/WX    TMP DP  RH WIND       PRES   REMARKS
NIAGARA FALLS  FLURRIES  27  18  69 NW13      29.89R WCI  16
BUFFALO        LGT SNOW  28  20  71 NW12      29.88R WCI  18
DUNKIRK        FLURRIES  28  22  78 W16G22    29.90S WCI  16
JAMESTOWN      CLOUDY    25  18  74 W13       29.82F WCI  13
WELLSVILLE     CLOUDY    30  20  66 NW13      29.76S WCI  20
ROCHESTER      FLURRIES  32  23  69 NW14      29.86R WCI  22
PENN YAN       FLURRIES  34  26  72 NW13G18   29.80R WCI  25
$$

             KEY
       WCI = WIND CHILL INDEX
       VSB = VISIBILITY
       HX  = HEAT INDEX
$$


USA.gov is the U.S. government's official web portal to all federal, state and local government web resources and services.